Hourly Data Report for December 17, 2010

IQALUIT CLIMATE
NUNAVUT

63°44'50.000" N
68°32'40.000" W
33.50 m
2402592
71321
XFB

Download Data

Hourly Data (December 2010)
Hourly Data Report for December 17, 2010
TIME
LST
Temp Definition
°C
Dew Point Definition
°C
Rel Hum Definition
%
Precip. Amount Definition
mm

Wind Dir Definition
10's deg

Wind Spd Definition
km/h
Visibility Definition
km
Stn Press Definition
kPa
Hmdx Definition


Wind Chill Definition


Weather Definition


00:00 0.5 -0.2 95   14 4   102.68     LegendNANA
01:00 1.2 0.5 95   14 4   102.73     LegendNANA
02:00 1.2 0.5 95   15 7   102.80     LegendNANA
03:00 0.6 0.2 97   15 6   102.81     LegendNANA
04:00 1.1 0.9 99   14 9   102.86     LegendNANA
05:00 0.8 0.8 100   17 2   102.89     LegendNANA
06:00 0.8 0.8 100   31 4   102.90     LegendNANA
07:00 0.8 0.8 100   35 2   102.90     LegendNANA
08:00 1.2 1.2 100   16 6   102.93     LegendNANA
09:00 1.6 -0.5 86   15 11   102.90     LegendNANA
10:00 0.9 -1.0 87   12 6   102.95     LegendNANA
11:00 0.9 -1.0 87   14 11   102.95     LegendNANA
12:00 0.4 -0.3 95   16 4   102.98     LegendNANA
13:00 1.2 0.8 97   11 7   102.97     LegendNANA
14:00 1.4 -1.0 84   12 7   102.96     LegendNANA
15:00 2.1 -0.7 82   8 17   102.88     LegendNANA
16:00 2.2 -0.8 81   16 7   102.88     LegendNANA
17:00 1.4 -0.9 85   22 2   102.83     LegendNANA
18:00 2.9 -0.4 79   9 15   102.78     LegendNANA
19:00 2.4 -0.7 80   11 22   102.75     LegendNANA
20:00 2.4 -1.0 78   10 24   102.76     LegendNANA
21:00 2.5 -0.9 78   11 30   102.70     LegendNANA
22:00 1.9 -1.6 78   13 24   102.68     LegendNANA
23:00 1.9 -1.8 76   9 30   102.67     LegendNANA

Notes on Data Quality.

Legend

  • E = Estimated
  • M = Missing
  • NA = Not Available*
  • [empty] = Indicates an unobserved value
Date modified: